DW7325 Weather Reports


Display with metric or nautical units.
time (UTC)temp
F
wind
direction
speed
MPH
gust
MPH
rain 1hr
in
rain 24hr
in
rain mn
in
humidity
%
barometer
mb
20260502163301 57 202 0.0 3.0 0.00 0.00 0.00 49 1013.8
20260502163155 56 355 0.0 3.0 0.00 0.00 0.00 49 1013.8
20260502163052 56 302 0.0 3.0 0.00 0.00 0.00 47 1013.8
20260502162949 56 269 0.0 3.0 0.00 0.00 0.00 48 1013.8
20260502162407 55 355 0.0 2.0 0.00 0.00 0.00 49 1013.8
20260502162045 55 74 0.0 6.0 0.00 0.00 0.00 49 1013.9
20260502161943 55 31 0.0 6.0 0.00 0.00 0.00 50 1014.0
20260502161836 55 346 0.0 6.0 0.00 0.00 0.00 50 1014.0
20260502161730 55 264 0.0 6.0 0.00 0.00 0.00 51 1014.0
20260502161623 55 277 0.0 6.0 0.00 0.00 0.00 51 1014.0
20260502161516 55 280 0.0 6.0 0.00 0.00 0.00 53 1014.1
20260502161151 55 119 1.0 6.0 0.00 0.00 0.00 51 1014.0
20260502161049 55 93 1.0 6.0 0.00 0.00 0.00 52 1014.0
20260502160945 55 267 1.0 6.0 0.00 0.00 0.00 51 1014.0
20260502160842 55 38 1.0 6.0 0.00 0.00 0.00 53 1014.0
20260502160740 55 343 1.0 6.0 0.00 0.00 0.00 53 1014.0
20260502160634 55 19 0.0 6.0 0.00 0.00 0.00 53 1014.0
20260502160529 55 320 0.0 6.0 0.00 0.00 0.00 53 1014.0
20260502160206 55 268 0.0 2.0 0.00 0.00 0.00 50 1014.0
20260502151712 54 24 0.0 3.0 0.00 0.00 0.00 58 1014.2
20260502151606 54 20 0.0 3.0 0.00 0.00 0.00 56 1014.2
20260502151503 54 15 0.0 3.0 0.00 0.00 0.00 55 1014.3
20260502151359 54 34 0.0 3.0 0.00 0.00 0.00 57 1014.2
20260502151254 54 290 0.0 3.0 0.00 0.00 0.00 56 1014.2
20260502151152 54 322 0.0 3.0 0.00 0.00 0.00 56 1014.2
20260502151050 54 299 0.0 3.0 0.00 0.00 0.00 55 1014.1
20260502150943 54 5 0.0 3.0 0.00 0.00 0.00 54 1014.2
20260502150840 54 106 0.0 3.0 0.00 0.00 0.00 55 1014.2
20260502150735 54 250 0.0 2.0 0.00 0.00 0.00 55 1014.2
20260502150630 54 252 0.0 2.0 0.00 0.00 0.00 55 1014.2
20260502150524 54 196 0.0 2.0 0.00 0.00 0.00 56 1014.2
20260502150200 54 281 0.0 2.0 0.00 0.00 0.00 56 1014.2
20260502140107 52 238 1.0 4.0 0.00 0.00 0.00 59 1013.8
20260502130700 49 71 1.0 10.0 0.00 0.00 0.00 64 1013.9
20260502130557 49 82 1.0 10.0 0.00 0.00 0.00 65 1014.0
20260502130451 49 34 1.0 10.0 0.00 0.00 0.00 64 1014.0
20260502130344 49 129 1.0 10.0 0.00 0.00 0.00 64 1014.0
20260502130238 49 355 1.0 10.0 0.00 0.00 0.00 65 1014.0
20260502130134 49 171 1.0 5.0 0.00 0.00 0.00 64 1014.0
20260502123718 48 79 1.0 7.0 0.00 0.00 0.00 66 1013.9
20260502123351 48 32 1.0 7.0 0.00 0.00 0.00 65 1013.8
20260502123248 48 37 1.0 7.0 0.00 0.00 0.00 65 1013.8
20260502123141 48 115 1.0 7.0 0.00 0.00 0.00 65 1013.9
20260502123035 48 251 1.0 7.0 0.00 0.00 0.00 65 1013.8
20260502122932 48 292 1.0 7.0 0.00 0.00 0.00 66 1013.9
20260502122829 48 254 1.0 6.0 0.00 0.00 0.00 65 1013.9
20260502122724 48 26 1.0 6.0 0.00 0.00 0.00 65 1013.9
20260502122619 48 301 1.0 6.0 0.00 0.00 0.00 65 1013.9
20260502122515 48 5 1.0 6.0 0.00 0.00 0.00 65 1013.9
20260502122413 48 319 1.0 6.0 0.00 0.00 0.00 65 1013.9
20260502122307 48 290 0.0 3.0 0.00 0.00 0.00 65 1014.0
20260502122204 48 265 0.0 6.0 0.00 0.00 0.00 65 1014.0
20260502121837 48 269 0.0 6.0 0.00 0.00 0.00 65 1013.9
20260502121251 48 318 1.0 6.0 0.00 0.00 0.00 66 1013.9
20260502121145 48 282 1.0 6.0 0.00 0.00 0.00 67 1013.9
20260502121042 48 289 1.0 6.0 0.00 0.00 0.00 67 1013.9
20260502120937 48 321 1.0 6.0 0.00 0.00 0.00 67 1013.9
20260502120833 48 278 1.0 6.0 0.00 0.00 0.00 66 1014.0
20260502120731 48 22 1.0 6.0 0.00 0.00 0.00 67 1014.0
20260502120626 48 45 1.0 6.0 0.00 0.00 0.00 66 1014.0
20260502120523 48 24 1.0 6.0 0.00 0.00 0.00 66 1013.9
20260502120420 48 24 1.0 6.0 0.00 0.00 0.00 66 1013.9
20260502120316 48 5 1.0 6.0 0.00 0.00 0.00 66 1013.9
20260502120209 48 314 1.0 6.0 0.00 0.00 0.00 67 1014.0
20260502120104 48 269 1.0 4.0 0.00 0.00 0.00 68 1014.0
20260502115739 48 111 0.0 4.0 0.00 0.00 0.00 70 1014.0
20260502115636 48 346 0.0 4.0 0.00 0.00 0.00 69 1014.1
20260502115529 47 238 0.0 2.0 0.00 0.00 0.00 69 1014.1
20260502115206 47 326 0.0 2.0 0.00 0.00 0.00 68 1014.1
20260502115059 47 326 0.0 2.0 0.00 0.00 0.00 68 1014.1
20260502114517 47 285 0.0 4.0 0.00 0.00 0.00 68 1014.0
20260502114412 47 281 0.0 4.0 0.00 0.00 0.00 68 1014.0
20260502114201 47 22 0.0 4.0 0.00 0.00 0.00 68 1014.0
20260502114059 47 291 0.0 4.0 0.00 0.00 0.00 68 1013.9
20260502113733 47 0 0.0 5.0 0.00 0.00 0.00 67 1014.0
20260502113629 47 83 0.0 5.0 0.00 0.00 0.00 67 1014.0
20260502113524 47 338 0.0 5.0 0.00 0.00 0.00 69 1014.0
20260502113419 47 39 0.0 5.0 0.00 0.00 0.00 69 1013.9
20260502113057 47 313 0.0 5.0 0.00 0.00 0.00 68 1013.9
20260502112950 47 318 1.0 5.0 0.00 0.00 0.00 68 1013.9
20260502112621 47 68 1.0 5.0 0.00 0.00 0.00 67 1014.0
20260502112254 47 34 1.0 5.0 0.00 0.00 0.00 68 1014.0
20260502112149 47 61 0.0 5.0 0.00 0.00 0.00 68 1013.9
20260502112046 47 5 0.0 5.0 0.00 0.00 0.00 68 1013.9
20260502111943 47 0 0.0 5.0 0.00 0.00 0.00 68 1013.9
20260502111135 47 5 0.0 2.0 0.00 0.00 0.00 68 1014.0
20260502111033 47 5 0.0 2.0 0.00 0.00 0.00 68 1014.0
20260502110927 47 64 0.0 2.0 0.00 0.00 0.00 68 1014.0
20260502110823 47 269 0.0 2.0 0.00 0.00 0.00 68 1014.0
20260502110719 47 70 0.0 2.0 0.00 0.00 0.00 68 1014.0
20260502110613 47 26 0.0 2.0 0.00 0.00 0.00 67 1014.0
20260502110511 47 77 0.0 2.0 0.00 0.00 0.00 68 1014.0
20260502110408 47 343 0.0 2.0 0.00 0.00 0.00 68 1014.0
20260502110302 47 76 0.0 2.0 0.00 0.00 0.00 67 1013.9
20260502110157 47 9 0.0 2.0 0.00 0.00 0.00 67 1013.9
20260502110054 47 60 0.0 2.0 0.00 0.00 0.00 68 1013.9
20260502105952 47 55 0.0 2.0 0.00 0.00 0.00 68 1013.9
20260502105849 47 80 0.0 2.0 0.00 0.00 0.00 67 1013.9
20260502105742 47 30 0.0 2.0 0.00 0.00 0.00 67 1013.9
20260502105637 47 53 0.0 2.0 0.00 0.00 0.00 67 1013.8
20260502105533 47 32 0.0 2.0 0.00 0.00 0.00 67 1013.8
20260502105426 47 22 0.0 2.0 0.00 0.00 0.00 67 1013.8
20260502105321 47 46 0.0 2.0 0.00 0.00 0.00 66 1013.8
20260502105219 47 17 0.0 2.0 0.00 0.00 0.00 66 1013.8
20260502105115 47 335 0.0 2.0 0.00 0.00 0.00 66 1013.8
20260502105012 47 326 0.0 2.0 0.00 0.00 0.00 66 1013.8
20260502104906 47 313 0.0 4.0 0.00 0.00 0.00 66 1013.8
20260502104802 47 242 0.0 4.0 0.00 0.00 0.00 66 1013.8
20260502104656 47 269 0.0 4.0 0.00 0.00 0.00 66 1013.8
20260502104113 47 294 0.0 4.0 0.00 0.00 0.00 67 1013.6
20260502104009 47 281 0.0 4.0 0.00 0.00 0.00 67 1013.6
20260502103901 47 34 0.0 4.0 0.00 0.00 0.00 66 1013.6
20260502103538 47 277 0.0 4.0 0.00 0.00 0.00 65 1013.6
20260502103432 47 96 0.0 4.0 0.00 0.00 0.00 65 1013.5
20260502103324 47 344 0.0 4.0 0.00 0.00 0.00 66 1013.5
20260502103221 48 289 0.0 4.0 0.00 0.00 0.00 65 1013.6
20260502103114 48 296 0.0 4.0 0.00 0.00 0.00 65 1013.6
20260502103010 48 24 0.0 4.0 0.00 0.00 0.00 65 1013.5
20260502102904 48 290 0.0 4.0 0.00 0.00 0.00 65 1013.5
20260502102757 48 333 0.0 4.0 0.00 0.00 0.00 65 1013.5
20260502102655 48 287 0.0 4.0 0.00 0.00 0.00 65 1013.5
20260502102329 48 286 1.0 6.0 0.00 0.00 0.00 66 1013.5
20260502102222 48 5 1.0 6.0 0.00 0.00 0.00 66 1013.4
20260502102115 48 59 1.0 6.0 0.00 0.00 0.00 65 1013.4
20260502102007 48 348 1.0 6.0 0.00 0.00 0.00 64 1013.5
20260502101902 48 336 1.0 6.0 0.00 0.00 0.00 64 1013.4
20260502101759 48 329 1.0 6.0 0.00 0.00 0.00 65 1013.3
20260502101655 48 11 1.0 6.0 0.00 0.00 0.00 65 1013.3
20260502101551 48 267 1.0 9.0 0.00 0.00 0.00 66 1013.4
20260502101445 48 313 1.0 9.0 0.00 0.00 0.00 66 1013.4
20260502101344 48 73 1.0 9.0 0.00 0.00 0.00 65 1013.4
20260502101236 48 315 1.0 9.0 0.00 0.00 0.00 65 1013.3
20260502101130 48 306 1.0 9.0 0.00 0.00 0.00 65 1013.4
20260502100547 48 342 1.0 9.0 0.00 0.00 0.00 65 1013.4
20260502100443 48 277 1.0 9.0 0.00 0.00 0.00 65 1013.4
20260502100339 48 28 1.0 9.0 0.00 0.00 0.00 65 1013.3
20260502091354 50 5 1.0 4.0 0.00 0.00 0.00 66 1012.7
20260502091250 50 65 1.0 4.0 0.00 0.00 0.00 67 1012.6
20260502091147 50 27 1.0 4.0 0.00 0.00 0.00 65 1012.6
20260502091039 50 49 1.0 9.0 0.00 0.00 0.00 66 1012.6
20260502090937 50 340 1.0 9.0 0.00 0.00 0.00 67 1012.6
20260502090835 50 286 1.0 9.0 0.00 0.00 0.00 65 1012.6
20260502090733 50 351 1.0 9.0 0.00 0.00 0.00 65 1012.5
20260502090630 50 314 0.0 9.0 0.00 0.00 0.00 65 1012.5
20260502090526 50 355 1.0 9.0 0.00 0.00 0.00 66 1012.5
20260502090422 50 36 1.0 9.0 0.00 0.00 0.00 65 1012.5
20260502071051 53 355 0.0 1.0 0.00 0.00 0.00 71 1012.0
20260502070947 53 355 0.0 1.0 0.00 0.00 0.00 71 1012.0
20260502070618 53 355 0.0 0.0 0.00 0.00 0.00 71 1012.0
20260502070515 53 355 0.0 0.0 0.00 0.00 0.00 71 1012.0
20260502070409 53 355 0.0 0.0 0.00 0.00 0.00 71 1012.0
20260502070303 53 355 0.0 0.0 0.00 0.00 0.00 71 1012.0
20260502070200 53 355 0.0 1.0 0.00 0.00 0.00 71 1012.0
20260502070058 53 355 0.0 1.0 0.00 0.00 0.00 70 1012.0
20260502065956 53 355 0.0 1.0 0.00 0.00 0.00 70 1012.0
20260502065851 53 355 0.0 1.0 0.00 0.00 0.00 71 1012.0
20260502065749 53 355 0.0 1.0 0.00 0.00 0.00 72 1012.0
20260502065645 53 347 0.0 1.0 0.00 0.00 0.00 72 1012.0
20260502065539 53 347 0.0 0.0 0.00 0.00 0.00 72 1012.0
20260502065432 53 347 0.0 0.0 0.00 0.00 0.00 71 1012.0
20260502065328 53 347 0.0 0.0 0.00 0.00 0.00 71 1012.0
20260502065225 53 347 0.0 0.0 0.00 0.00 0.00 71 1011.9
20260502065117 53 347 0.0 0.0 0.00 0.00 0.00 70 1012.0
20260502064749 53 321 0.0 0.0 0.00 0.00 0.00 70 1011.9
20260502064643 53 321 0.0 1.0 0.00 0.00 0.00 69 1011.9
20260502064538 53 321 0.0 1.0 0.00 0.00 0.00 70 1011.9
20260502064214 53 19 0.0 0.0 0.00 0.00 0.00 69 1011.9
20260502064107 53 19 0.0 0.0 0.00 0.00 0.00 69 1011.9
20260502064000 53 19 0.0 0.0 0.00 0.00 0.00 68 1012.0
20260502063855 53 19 0.0 0.0 0.00 0.00 0.00 68 1011.9
20260502063311 53 92 0.0 2.0 0.00 0.00 0.00 71 1011.9
20260502063207 53 56 0.0 2.0 0.00 0.00 0.00 71 1011.9
20260502063101 53 46 0.0 2.0 0.00 0.00 0.00 72 1011.9
20260502062959 53 349 0.0 2.0 0.00 0.00 0.00 71 1011.9
20260502062855 53 286 0.0 0.0 0.00 0.00 0.00 71 1011.9
20260502062528 53 286 0.0 1.0 0.00 0.00 0.00 71 1011.9
20260502062421 53 302 0.0 1.0 0.00 0.00 0.00 70 1011.9
20260502062317 53 298 0.0 0.0 0.00 0.00 0.00 70 1011.9
20260502062212 53 317 0.0 0.0 0.00 0.00 0.00 71 1011.9
20260502062105 54 317 0.0 0.0 0.00 0.00 0.00 71 1011.8
20260502062000 53 317 0.0 0.0 0.00 0.00 0.00 71 1011.9
20260502061856 54 317 0.0 1.0 0.00 0.00 0.00 72 1011.9
20260502061530 54 227 0.0 2.0 0.00 0.00 0.00 71 1012.0
20260502061426 54 227 0.0 2.0 0.00 0.00 0.00 72 1011.9
20260502061321 54 284 0.0 2.0 0.00 0.00 0.00 72 1011.9
20260502061215 54 283 0.0 2.0 0.00 0.00 0.00 73 1011.9
20260502061107 54 283 0.0 2.0 0.00 0.00 0.00 73 1012.0
20260502061001 54 333 0.0 2.0 0.00 0.00 0.00 73 1012.0
20260502060854 54 333 0.0 2.0 0.00 0.00 0.00 73 1012.0
20260502060753 54 333 0.0 2.0 0.00 0.00 0.00 73 1012.0
20260502060645 54 5 0.0 2.0 0.00 0.00 0.00 71 1012.0
20260502060541 54 5 0.0 2.0 0.00 0.00 0.00 72 1012.1
20260502060213 54 5 0.0 2.0 0.00 0.00 0.00 69 1012.2
20260502060108 54 5 0.0 2.0 0.00 0.00 0.00 70 1012.2
20260502060002 54 163 0.0 2.0 0.00 0.00 0.00 71 1012.2
20260502055900 54 285 0.0 2.0 0.00 0.00 0.00 71 1012.2
20260502055755 54 318 0.0 2.0 0.00 0.00 0.00 71 1012.1
20260502055650 54 318 0.0 2.0 0.00 0.00 0.00 72 1012.0
20260502055543 54 347 0.0 2.0 0.00 0.00 0.00 72 1012.0
20260502055438 54 347 0.0 2.0 0.00 0.00 0.00 72 1012.0
20260502055335 54 44 0.0 2.0 0.00 0.00 0.00 73 1012.0
20260502055227 54 29 0.0 2.0 0.00 0.00 0.00 73 1012.0
20260502055121 54 33 0.0 2.0 0.00 0.00 0.00 72 1012.0
20260502055018 54 349 0.0 2.0 0.00 0.00 0.00 72 1012.1
20260502054914 54 330 0.0 2.0 0.00 0.00 0.00 72 1012.2
20260502054553 54 22 0.0 1.0 0.00 0.00 0.00 73 1012.2
20260502054445 54 322 0.0 1.0 0.00 0.00 0.00 74 1012.2
20260502054340 54 27 0.0 0.0 0.00 0.00 0.00 74 1012.2
20260502054232 54 27 0.0 0.0 0.00 0.00 0.00 74 1012.2
20260502054127 54 27 0.0 0.0 0.00 0.00 0.00 74 1012.2
20260502054022 54 27 0.0 0.0 0.00 0.00 0.00 74 1012.2
20260502053916 54 27 0.0 0.0 0.00 0.00 0.00 74 1012.2
20260502053813 54 27 0.0 8.0 0.00 0.00 0.00 74 1012.1
20260502053707 54 27 0.0 8.0 0.00 0.00 0.00 75 1012.1
20260502053601 54 27 0.0 8.0 0.00 0.00 0.00 75 1012.1
20260502053456 54 27 0.0 8.0 0.00 0.00 0.00 74 1012.2
20260502053349 54 34 0.0 8.0 0.00 0.00 0.00 74 1012.1
20260502053242 54 107 0.0 8.0 0.00 0.00 0.00 74 1012.2
20260502053140 54 355 0.0 8.0 0.00 0.00 0.00 73 1012.2
20260502053036 54 355 0.0 2.0 0.00 0.00 0.00 73 1012.2
20260502052456 54 24 0.0 2.0 0.00 0.00 0.00 71 1012.3
20260502052352 54 126 0.0 2.0 0.00 0.00 0.00 71 1012.3
20260502051810 54 142 0.0 0.0 0.00 0.00 0.00 69 1012.3
20260502051704 54 142 0.0 0.0 0.00 0.00 0.00 70 1012.3
20260502051601 54 145 0.0 0.0 0.00 0.00 0.00 70 1012.3
20260502051457 54 145 0.0 0.0 0.00 0.00 0.00 70 1012.3
20260502051134 54 161 0.0 2.0 0.00 0.00 0.00 72 1012.3
20260502051030 54 24 0.0 1.0 0.00 0.00 0.00 72 1012.3
20260502050926 54 24 0.0 1.0 0.00 0.00 0.00 73 1012.2
20260502050604 54 67 0.0 0.0 0.00 0.00 0.00 75 1012.2
20260502050014 54 348 0.0 1.0 0.00 0.00 0.00 74 1012.3
20260502045912 54 348 0.0 1.0 0.00 0.00 0.00 74 1012.3
20260502045548 54 17 0.0 0.0 0.00 0.00 0.00 71 1012.4
20260502045443 54 17 0.0 0.0 0.00 0.00 0.00 71 1012.3
20260502045335 54 17 0.0 0.0 0.00 0.00 0.00 71 1012.3
20260502045230 54 17 0.0 0.0 0.00 0.00 0.00 71 1012.3
20260502044903 54 27 0.0 1.0 0.00 0.00 0.00 74 1012.2
20260502044757 54 24 0.0 1.0 0.00 0.00 0.00 75 1012.2
20260502044654 54 22 0.0 0.0 0.00 0.00 0.00 75 1012.2
20260502044548 54 22 0.0 0.0 0.00 0.00 0.00 75 1012.2
20260502044221 54 22 0.0 0.0 0.00 0.00 0.00 72 1012.2
20260502044113 54 71 0.0 0.0 0.00 0.00 0.00 72 1012.2
20260502044006 54 71 0.0 0.0 0.00 0.00 0.00 71 1012.2
20260502043901 54 36 0.0 0.0 0.00 0.00 0.00 71 1012.3
20260502043753 54 36 0.0 0.0 0.00 0.00 0.00 72 1012.3
20260502043648 54 36 0.0 0.0 0.00 0.00 0.00 72 1012.4
20260502043540 54 36 0.0 0.0 0.00 0.00 0.00 72 1012.4
20260502043433 54 36 0.0 0.0 0.00 0.00 0.00 72 1012.4
20260502043327 54 36 0.0 0.0 0.00 0.00 0.00 73 1012.4
20260502043225 54 36 0.0 0.0 0.00 0.00 0.00 74 1012.4
20260502043119 54 36 0.0 0.0 0.00 0.00 0.00 74 1012.4
20260502043013 54 36 0.0 0.0 0.00 0.00 0.00 75 1012.4
20260502042911 54 36 0.0 0.0 0.00 0.00 0.00 76 1012.4
20260502042806 54 36 0.0 0.0 0.00 0.00 0.00 76 1012.3
20260502042701 54 36 0.0 0.0 0.00 0.00 0.00 77 1012.3
20260502042555 54 36 0.0 0.0 0.00 0.00 0.00 77 1012.3
20260502042451 54 36 0.0 0.0 0.00 0.00 0.00 77 1012.3
20260502042129 54 34 0.0 0.0 0.00 0.00 0.00 78 1012.4
20260502042024 54 5 0.0 0.0 0.00 0.00 0.00 78 1012.4
20260502041700 54 47 0.0 0.0 0.00 0.00 0.00 77 1012.4
20260502041557 54 47 0.0 0.0 0.00 0.00 0.00 77 1012.4
20260502041451 54 47 0.0 0.0 0.00 0.00 0.00 77 1012.4
20260502041349 54 47 0.0 0.0 0.00 0.00 0.00 77 1012.4
20260502041245 54 47 0.0 0.0 0.00 0.00 0.00 77 1012.3
20260502041139 54 47 0.0 0.0 0.00 0.00 0.00 77 1012.2
20260502041035 54 47 0.0 0.0 0.00 0.00 0.00 77 1012.2
20260502040932 54 47 0.0 0.0 0.00 0.00 0.00 77 1012.1
20260502040827 54 47 0.0 0.0 0.00 0.00 0.00 77 1012.1
20260502040725 54 47 0.0 0.0 0.00 0.00 0.00 77 1012.1
20260502040620 54 47 0.0 0.0 0.00 0.00 0.00 75 1012.1
20260502040516 54 47 0.0 0.0 0.00 0.00 0.00 72 1012.1
20260502040411 54 47 0.0 0.0 0.00 0.00 0.00 72 1012.1
20260502040306 54 47 0.0 0.0 0.00 0.00 0.00 73 1012.1
20260502040204 54 47 0.0 0.0 0.00 0.00 0.00 73 1012.1
20260502035954 54 5 0.0 3.0 0.00 0.00 0.00 74 1012.1
20260502035849 54 5 0.0 3.0 0.00 0.00 0.00 74 1012.1
20260502035744 54 24 0.0 3.0 0.00 0.00 0.00 75 1012.1
20260502035637 54 318 0.0 3.0 0.00 0.00 0.00 75 1012.1
20260502035530 54 318 0.0 3.0 0.00 0.00 0.00 75 1012.1
20260502035426 54 42 0.0 3.0 0.00 0.00 0.00 76 1012.0
20260502035324 54 317 0.0 3.0 0.00 0.00 0.00 78 1012.1
20260502035217 54 338 0.0 1.0 0.00 0.00 0.00 78 1012.1
20260502034852 54 302 0.0 8.0 0.00 0.00 0.00 77 1012.0
20260502034524 54 133 0.0 8.0 0.00 0.00 0.00 79 1011.9
20260502034421 54 50 0.0 8.0 0.00 0.00 0.00 80 1011.9
20260502034318 54 324 0.0 8.0 0.00 0.00 0.00 81 1011.9
20260502034213 54 324 0.0 8.0 0.00 0.00 0.00 81 1011.8
20260502033852 54 5 0.0 2.0 0.00 0.00 0.00 81 1011.8
20260502033750 54 73 0.0 2.0 0.00 0.00 0.00 81 1011.7
20260502033648 54 5 0.0 1.0 0.00 0.00 0.00 81 1011.7
20260502033322 54 348 0.0 1.0 0.00 0.00 0.00 82 1011.6
20260502033215 54 355 0.0 1.0 0.00 0.00 0.00 82 1011.6
20260502033107 54 355 0.0 1.0 0.00 0.00 0.00 83 1011.6
20260502033001 54 344 0.0 1.0 0.00 0.00 0.00 83 1011.6
20260502032636 54 345 0.0 0.0 0.00 0.00 0.00 82 1011.6
20260502032532 54 300 0.0 1.0 0.00 0.00 0.00 83 1011.5
20260502032427 54 301 0.0 1.0 0.00 0.00 0.00 83 1011.5
20260502032324 54 301 0.0 1.0 0.00 0.00 0.00 82 1011.5
20260502032220 54 130 0.0 1.0 0.00 0.00 0.00 82 1011.5
20260502032119 54 42 0.0 1.0 0.00 0.00 0.00 82 1011.5
20260502032013 54 140 0.0 1.0 0.00 0.00 0.00 82 1011.4
20260502031428 54 334 0.0 0.0 0.00 0.00 0.00 82 1011.3
20260502031326 54 334 0.0 2.0 0.00 0.00 0.00 82 1011.3
20260502031221 54 334 0.0 2.0 0.00 0.00 0.00 82 1011.3
20260502031116 54 334 0.0 2.0 0.00 0.00 0.00 82 1011.3
20260502031010 54 334 0.0 2.0 0.00 0.00 0.00 81 1011.3
20260502030906 54 318 0.0 2.0 0.00 0.00 0.00 80 1011.3
20260502030759 54 318 0.0 2.0 0.00 0.00 0.00 80 1011.3
20260502030655 54 318 0.0 2.0 0.00 0.00 0.00 80 1011.3
20260502030332 54 318 0.0 1.0 0.00 0.00 0.00 78 1011.1
20260502030228 55 333 0.0 1.0 0.00 0.00 0.00 78 1011.1
20260502030126 55 333 0.0 1.0 0.00 0.00 0.00 78 1011.0
20260502030024 55 333 0.0 1.0 0.00 0.00 0.00 77 1011.0
20260502025917 55 333 0.0 1.0 0.00 0.00 0.00 77 1011.0
20260502025811 55 333 0.0 1.0 0.00 0.00 0.00 77 1011.0
20260502025704 55 309 0.0 1.0 0.00 0.00 0.00 76 1010.9
20260502025603 55 288 0.0 1.0 0.00 0.00 0.00 75 1010.9
20260502025457 55 255 0.0 1.0 0.00 0.00 0.00 74 1010.7
20260502025351 56 149 0.0 0.0 0.00 0.00 0.00 74 1010.7
20260502025244 56 149 0.0 0.0 0.00 0.00 0.00 74 1010.7
20260502025137 56 149 0.0 0.0 0.00 0.00 0.00 74 1010.6
20260502025033 56 149 0.0 0.0 0.00 0.00 0.00 73 1010.7
20260502024929 56 149 0.0 0.0 0.00 0.00 0.00 73 1010.8
20260502024824 56 149 0.0 0.0 0.00 0.00 0.00 72 1010.7
20260502024717 56 149 0.0 0.0 0.00 0.00 0.00 72 1010.7
20260502024609 56 149 0.0 0.0 0.00 0.00 0.00 72 1010.7
20260502024244 56 149 0.0 0.0 0.00 0.00 0.00 72 1010.7
20260502024140 56 149 0.0 0.0 0.00 0.00 0.00 72 1010.7
20260502024034 56 149 0.0 0.0 0.00 0.00 0.00 72 1010.7
20260502023928 56 149 0.0 0.0 0.00 0.00 0.00 72 1010.7
20260502023821 56 149 0.0 0.0 0.00 0.00 0.00 73 1010.7
20260502023715 56 149 0.0 0.0 0.00 0.00 0.00 73 1010.6
20260502023609 56 149 0.0 0.0 0.00 0.00 0.00 74 1010.6
20260502023507 56 149 0.0 1.0 0.00 0.00 0.00 73 1010.6
20260502023403 56 149 0.0 1.0 0.00 0.00 0.00 73 1010.5
20260502023257 56 149 0.0 1.0 0.00 0.00 0.00 72 1010.6
20260502023152 56 149 0.0 0.0 0.00 0.00 0.00 71 1010.6
20260502023048 56 149 0.0 0.0 0.00 0.00 0.00 71 1010.6
20260502022722 56 149 0.0 1.0 0.00 0.00 0.00 69 1010.6
20260502022615 56 149 0.0 1.0 0.00 0.00 0.00 68 1010.6
20260502022507 56 149 0.0 1.0 0.00 0.00 0.00 67 1010.7
20260502022404 57 237 0.0 1.0 0.00 0.00 0.00 67 1010.7
20260502022300 57 237 0.0 0.0 0.00 0.00 0.00 67 1010.7
20260502021934 57 237 0.0 1.0 0.00 0.00 0.00 66 1010.9
20260502021826 57 237 0.0 0.0 0.00 0.00 0.00 66 1010.8
20260502021721 57 237 0.0 0.0 0.00 0.00 0.00 65 1010.8
20260502021619 57 237 0.0 0.0 0.00 0.00 0.00 65 1010.8
20260502021511 57 237 0.0 0.0 0.00 0.00 0.00 66 1010.8
20260502021409 57 237 0.0 0.0 0.00 0.00 0.00 67 1010.9
20260502021306 57 237 0.0 0.0 0.00 0.00 0.00 67 1010.9
20260502021202 57 228 0.0 0.0 0.00 0.00 0.00 67 1010.9
20260502021055 57 228 0.0 1.0 0.00 0.00 0.00 66 1010.9
20260502020946 57 228 0.0 1.0 0.00 0.00 0.00 66 1010.9
20260502020843 57 228 0.0 1.0 0.00 0.00 0.00 66 1010.9
20260502020740 57 228 0.0 1.0 0.00 0.00 0.00 66 1010.9
20260502020638 57 228 0.0 1.0 0.00 0.00 0.00 66 1010.9
20260502020530 57 279 0.0 1.0 0.00 0.00 0.00 66 1010.7
20260502015951 57 239 0.0 2.0 0.00 0.00 0.00 63 1010.9
20260502015848 57 239 0.0 2.0 0.00 0.00 0.00 62 1010.9
20260502015743 57 110 0.0 1.0 0.00 0.00 0.00 62 1010.8
20260502015640 57 85 0.0 1.0 0.00 0.00 0.00 62 1010.8
20260502015536 57 355 0.0 0.0 0.00 0.00 0.00 61 1010.8
20260502015212 57 355 0.0 1.0 0.00 0.00 0.00 62 1010.8
20260502015108 57 355 0.0 1.0 0.00 0.00 0.00 62 1010.8
20260502015003 57 355 0.0 1.0 0.00 0.00 0.00 62 1010.8
20260502014901 57 355 0.0 1.0 0.00 0.00 0.00 62 1010.8
20260502014756 57 355 0.0 1.0 0.00 0.00 0.00 62 1010.8
20260502014651 57 26 0.0 0.0 0.00 0.00 0.00 62 1010.8
20260502014327 57 26 0.0 0.0 0.00 0.00 0.00 62 1010.7
20260502014003 57 26 0.0 0.0 0.00 0.00 0.00 59 1010.8
20260502013859 57 26 0.0 0.0 0.00 0.00 0.00 58 1010.7
20260502013755 57 26 0.0 0.0 0.00 0.00 0.00 59 1010.7
20260502013648 57 26 0.0 0.0 0.00 0.00 0.00 61 1010.6
20260502013541 57 26 0.0 0.0 0.00 0.00 0.00 61 1010.6
20260502013436 57 26 0.0 0.0 0.00 0.00 0.00 61 1010.5
20260502013331 58 26 0.0 0.0 0.00 0.00 0.00 60 1010.5
20260502013005 58 26 0.0 0.0 0.00 0.00 0.00 59 1010.4
20260502012859 58 26 0.0 0.0 0.00 0.00 0.00 60 1010.4
20260502012752 58 26 0.0 0.0 0.00 0.00 0.00 60 1010.3
20260502012426 58 26 0.0 0.0 0.00 0.00 0.00 62 1010.3
20260502012323 58 26 0.0 0.0 0.00 0.00 0.00 63 1010.3
20260502012220 58 26 0.0 0.0 0.00 0.00 0.00 62 1010.2
20260502011859 58 26 0.0 0.0 0.00 0.00 0.00 60 1010.1
20260502011756 58 26 0.0 0.0 0.00 0.00 0.00 60 1010.0
20260502011650 58 26 0.0 0.0 0.00 0.00 0.00 60 1010.0
20260502011544 58 26 0.0 0.0 0.00 0.00 0.00 60 1010.0
20260502011442 58 26 0.0 0.0 0.00 0.00 0.00 59 1009.9
20260502011337 58 26 0.0 0.0 0.00 0.00 0.00 59 1009.8
20260502011231 58 111 0.0 0.0 0.00 0.00 0.00 59 1009.8
20260502011128 58 111 0.0 0.0 0.00 0.00 0.00 59 1009.7
20260502011021 58 111 0.0 0.0 0.00 0.00 0.00 59 1009.7
20260502010916 58 111 0.0 0.0 0.00 0.00 0.00 59 1009.7
20260502010813 58 111 0.0 0.0 0.00 0.00 0.00 59 1009.6
20260502010705 58 111 0.0 0.0 0.00 0.00 0.00 58 1009.6
20260502010559 58 111 0.0 0.0 0.00 0.00 0.00 57 1009.5
20260502010453 58 111 0.0 0.0 0.00 0.00 0.00 57 1009.5
20260502010348 58 111 0.0 0.0 0.00 0.00 0.00 57 1009.5
20260502010242 58 111 0.0 0.0 0.00 0.00 0.00 56 1009.5
20260502010137 59 111 0.0 0.0 0.00 0.00 0.00 56 1009.5
20260502010032 59 111 0.0 0.0 0.00 0.00 0.00 56 1009.5
20260502005931 59 111 0.0 0.0 0.00 0.00 0.00 56 1009.4
20260502005822 59 111 0.0 0.0 0.00 0.00 0.00 57 1009.4
20260502005720 59 111 0.0 0.0 0.00 0.00 0.00 57 1009.4
20260502005615 59 111 0.0 0.0 0.00 0.00 0.00 57 1009.3
20260502005510 59 111 0.0 0.0 0.00 0.00 0.00 57 1009.3
20260502004921 59 111 0.0 0.0 0.00 0.00 0.00 57 1009.3
20260502004814 59 111 0.0 0.0 0.00 0.00 0.00 57 1009.2
20260502004712 59 111 0.0 0.0 0.00 0.00 0.00 57 1009.2
20260502004606 59 111 0.0 0.0 0.00 0.00 0.00 57 1009.2
20260502004504 59 111 0.0 0.0 0.00 0.00 0.00 57 1009.2
20260502004400 59 111 0.0 0.0 0.00 0.00 0.00 58 1009.2
20260502004252 59 111 0.0 0.0 0.00 0.00 0.00 57 1009.2
20260502004145 59 111 0.0 0.0 0.00 0.00 0.00 56 1009.1
20260502003823 59 111 0.0 0.0 0.00 0.00 0.00 57 1009.1
20260502003717 60 111 0.0 0.0 0.00 0.00 0.00 57 1009.1
20260502003612 60 111 0.0 0.0 0.00 0.00 0.00 58 1009.1
20260502003509 60 111 0.0 0.0 0.00 0.00 0.00 58 1009.1
20260502003405 60 111 0.0 0.0 0.00 0.00 0.00 58 1009.1
20260502003042 60 111 0.0 0.0 0.00 0.00 0.00 57 1009.0
20260502002938 60 111 0.0 0.0 0.00 0.00 0.00 57 1009.1
20260502002136 60 111 0.0 0.0 0.00 0.00 0.00 54 1009.0
20260502002034 60 111 0.0 0.0 0.00 0.00 0.00 54 1009.0
20260502001927 60 111 0.0 0.0 0.00 0.00 0.00 54 1009.0
20260502001819 60 111 0.0 0.0 0.00 0.00 0.00 54 1008.9
20260502001712 61 111 0.0 0.0 0.00 0.00 0.00 54 1008.9
20260502001607 61 111 0.0 0.0 0.00 0.00 0.00 53 1008.9
20260502001505 61 111 0.0 0.0 0.00 0.00 0.00 54 1008.9
20260502001358 61 111 0.0 0.0 0.00 0.00 0.00 53 1009.0
20260502001253 61 111 0.0 0.0 0.00 0.00 0.00 53 1009.0
20260502001146 61 111 0.0 0.0 0.00 0.00 0.00 53 1009.0
20260502001042 61 111 0.0 0.0 0.00 0.00 0.00 53 1009.1
20260502000937 61 111 0.0 0.0 0.00 0.00 0.00 54 1009.1
20260502000359 61 111 0.0 0.0 0.00 0.00 0.00 52 1009.0
20260502000256 61 111 0.0 0.0 0.00 0.00 0.00 52 1009.0
20260502000153 61 111 0.0 0.0 0.00 0.00 0.00 51 1009.0
20260502000050 61 111 0.0 0.0 0.00 0.00 0.00 51 1009.0
20260501235947 61 111 0.0 0.0 0.00 0.00 0.00 51 1009.0
20260501235842 61 111 0.0 0.0 0.00 0.00 0.00 51 1009.0
20260501235736 62 111 0.0 0.0 0.00 0.00 0.00 50 1009.1
20260501235634 62 111 0.0 0.0 0.00 0.00 0.00 49 1009.1
20260501235526 62 111 0.0 0.0 0.00 0.00 0.00 48 1009.1
20260501235418 62 111 0.0 0.0 0.00 0.00 0.00 48 1009.1
20260501235053 62 111 0.0 0.0 0.00 0.00 0.00 47 1009.0
20260501234729 62 111 0.0 0.0 0.00 0.00 0.00 47 1009.0
20260501234627 62 111 0.0 0.0 0.00 0.00 0.00 47 1009.0
20260501234524 62 111 0.0 0.0 0.00 0.00 0.00 47 1009.0
20260501234417 62 111 0.0 0.0 0.00 0.00 0.00 47 1009.0
20260501234315 62 111 0.0 0.0 0.00 0.00 0.00 46 1009.1
20260501234210 62 111 0.0 0.0 0.00 0.00 0.00 46 1009.1
20260501234108 62 111 0.0 0.0 0.00 0.00 0.00 46 1009.1
20260501234003 62 111 0.0 0.0 0.00 0.00 0.00 46 1009.0
20260501233857 62 111 0.0 0.0 0.00 0.00 0.00 47 1009.0
20260501233753 62 111 0.0 0.0 0.00 0.00 0.00 46 1009.0
20260501233427 62 111 0.0 0.0 0.00 0.00 0.00 47 1009.0
20260501233323 63 111 0.0 0.0 0.00 0.00 0.00 47 1008.9
20260501233001 63 111 0.0 0.0 0.00 0.00 0.00 46 1009.0
20260501232854 63 111 0.0 0.0 0.00 0.00 0.00 47 1008.9
20260501232747 63 111 0.0 0.0 0.00 0.00 0.00 46 1008.9
20260501232643 63 111 0.0 0.0 0.00 0.00 0.00 45 1008.9
20260501232538 63 111 0.0 0.0 0.00 0.00 0.00 46 1008.9
20260501232430 63 111 0.0 0.0 0.00 0.00 0.00 45 1008.8
20260501232104 63 111 0.0 0.0 0.00 0.00 0.00 46 1008.6
20260501231958 63 111 0.0 0.0 0.00 0.00 0.00 46 1008.6
20260501231633 63 111 0.0 0.0 0.00 0.00 0.00 45 1008.6
20260501231524 63 111 0.0 0.0 0.00 0.00 0.00 45 1008.6
20260501231420 63 111 0.0 0.0 0.00 0.00 0.00 45 1008.6
20260501231051 63 111 0.0 3.0 0.00 0.00 0.00 45 1008.6
20260501230944 63 111 0.0 3.0 0.00 0.00 0.00 46 1008.6
20260501230839 63 111 0.0 3.0 0.00 0.00 0.00 47 1008.6
20260501230733 63 111 0.0 3.0 0.00 0.00 0.00 47 1008.6
20260501230630 64 111 0.0 3.0 0.00 0.00 0.00 46 1008.6
20260501230526 64 120 0.0 0.0 0.00 0.00 0.00 46 1008.6
20260501230422 64 120 0.0 0.0 0.00 0.00 0.00 46 1008.6
20260501230315 64 120 0.0 2.0 0.00 0.00 0.00 46 1008.6
20260501225948 64 105 0.0 2.0 0.00 0.00 0.00 46 1008.7
20260501225845 64 71 0.0 2.0 0.00 0.00 0.00 46 1008.8
20260501225739 64 71 0.0 2.0 0.00 0.00 0.00 46 1008.9
20260501225414 64 154 0.0 1.0 0.00 0.00 0.00 45 1008.9
20260501225047 64 154 0.0 1.0 0.00 0.00 0.00 45 1008.9
20260501224940 64 154 0.0 1.0 0.00 0.00 0.00 46 1008.8
20260501224834 64 154 0.0 0.0 0.00 0.00 0.00 45 1008.8
20260501224730 64 154 0.0 0.0 0.00 0.00 0.00 45 1008.9
20260501224625 64 154 0.0 0.0 0.00 0.00 0.00 45 1008.9
20260501224523 64 154 0.0 1.0 0.00 0.00 0.00 45 1008.9
20260501224417 64 154 0.0 1.0 0.00 0.00 0.00 46 1008.9
20260501224313 64 154 0.0 1.0 0.00 0.00 0.00 45 1008.8
20260501223951 64 157 0.0 1.0 0.00 0.00 0.00 42 1009.0
20260501223848 64 183 0.0 0.0 0.00 0.00 0.00 42 1009.0
20260501223743 64 186 0.0 0.0 0.00 0.00 0.00 42 1009.1
20260501223416 64 189 0.0 0.0 0.00 0.00 0.00 43 1009.1
20260501223314 64 189 0.0 1.0 0.00 0.00 0.00 43 1009.1
20260501223208 64 189 0.0 1.0 0.00 0.00 0.00 43 1009.1
20260501223100 64 189 0.0 1.0 0.00 0.00 0.00 43 1009.1
20260501222733 64 155 0.0 1.0 0.00 0.00 0.00 42 1009.1
20260501222628 65 99 0.0 0.0 0.00 0.00 0.00 42 1009.1
20260501222521 64 99 0.0 0.0 0.00 0.00 0.00 41 1009.1
20260501222419 64 99 0.0 0.0 0.00 0.00 0.00 41 1009.2
20260501222315 64 99 0.0 2.0 0.00 0.00 0.00 41 1009.2
20260501222211 65 173 0.0 2.0 0.00 0.00 0.00 41 1009.2
20260501221845 65 144 0.0 2.0 0.00 0.00 0.00 40 1009.2
20260501221738 65 300 0.0 2.0 0.00 0.00 0.00 40 1009.3
20260501221412 65 242 0.0 2.0 0.00 0.00 0.00 39 1009.2
20260501221309 65 242 0.0 2.0 0.00 0.00 0.00 38 1009.2
20260501221203 65 242 0.0 2.0 0.00 0.00 0.00 37 1009.1
20260501220834 65 136 0.0 2.0 0.00 0.00 0.00 40 1009.2
20260501220729 65 9 0.0 3.0 0.00 0.00 0.00 38 1009.2
20260501220405 65 67 0.0 3.0 0.00 0.00 0.00 41 1009.2
20260501220259 65 123 1.0 3.0 0.00 0.00 0.00 42 1009.2
20260501220153 65 205 0.0 3.0 0.00 0.00 0.00 42 1009.3
20260501220050 65 120 0.0 3.0 0.00 0.00 0.00 43 1009.3
20260501215943 65 239 0.0 3.0 0.00 0.00 0.00 41 1009.3
20260501215618 65 168 0.0 4.0 0.00 0.00 0.00 40 1009.3
20260501215510 65 167 0.0 4.0 0.00 0.00 0.00 40 1009.2
20260501215407 65 209 0.0 4.0 0.00 0.00 0.00 40 1009.2
20260501215305 65 42 0.0 4.0 0.00 0.00 0.00 39 1009.2
20260501215203 65 115 0.0 4.0 0.00 0.00 0.00 40 1009.1
20260501215056 65 104 0.0 4.0 0.00 0.00 0.00 40 1009.2
20260501214949 65 29 0.0 4.0 0.00 0.00 0.00 41 1009.2
20260501214841 65 205 0.0 4.0 0.00 0.00 0.00 40 1009.2
20260501214517 65 313 0.0 4.0 0.00 0.00 0.00 39 1009.2
20260501214410 65 52 0.0 4.0 0.00 0.00 0.00 39 1009.2
20260501214307 65 103 0.0 4.0 0.00 0.00 0.00 39 1009.3
20260501214203 65 130 0.0 4.0 0.00 0.00 0.00 39 1009.2
20260501214058 65 107 0.0 4.0 0.00 0.00 0.00 39 1009.2
20260501213732 65 200 0.0 4.0 0.00 0.00 0.00 40 1009.2
20260501213628 65 101 0.0 4.0 0.00 0.00 0.00 41 1009.2
20260501213523 65 138 0.0 4.0 0.00 0.00 0.00 41 1009.3
20260501213418 65 139 0.0 4.0 0.00 0.00 0.00 41 1009.2
20260501213313 65 30 0.0 4.0 0.00 0.00 0.00 39 1009.2
20260501213208 65 254 0.0 4.0 0.00 0.00 0.00 39 1009.2
20260501213104 65 217 1.0 4.0 0.00 0.00 0.00 38 1009.2
20260501213001 65 138 1.0 4.0 0.00 0.00 0.00 37 1009.2
20260501212854 65 62 0.0 4.0 0.00 0.00 0.00 39 1009.3
20260501212535 65 221 1.0 4.0 0.00 0.00 0.00 39 1009.3
20260501212427 65 136 1.0 4.0 0.00 0.00 0.00 40 1009.3
20260501212325 65 145 1.0 4.0 0.00 0.00 0.00 41 1009.3
20260501211737 66 100 1.0 8.0 0.00 0.00 0.00 39 1009.4
20260501211634 66 115 1.0 8.0 0.00 0.00 0.00 40 1009.4
20260501211531 66 199 1.0 8.0 0.00 0.00 0.00 39 1009.3
20260501211425 66 182 1.0 8.0 0.00 0.00 0.00 40 1009.3
20260501211321 66 84 1.0 8.0 0.00 0.00 0.00 39 1009.3
20260501211217 66 114 1.0 8.0 0.00 0.00 0.00 39 1009.3
20260501211110 66 227 1.0 8.0 0.00 0.00 0.00 40 1009.3
20260501211007 66 211 1.0 8.0 0.00 0.00 0.00 40 1009.4
20260501210903 66 65 1.0 8.0 0.00 0.00 0.00 39 1009.5
20260501210757 66 132 1.0 8.0 0.00 0.00 0.00 38 1009.4
20260501210650 66 144 1.0 8.0 0.00 0.00 0.00 37 1009.6
20260501210323 66 46 1.0 8.0 0.00 0.00 0.00 41 1009.5
20260501210216 66 157 1.0 8.0 0.00 0.00 0.00 40 1009.6
20260501205854 66 218 1.0 4.0 0.00 0.00 0.00 39 1009.6
20260501205527 66 146 1.0 5.0 0.00 0.00 0.00 37 1009.6
20260501205422 66 98 1.0 5.0 0.00 0.00 0.00 38 1009.6
20260501205100 66 221 1.0 5.0 0.00 0.00 0.00 38 1009.5
20260501204736 66 157 1.0 5.0 0.00 0.00 0.00 39 1009.5
20260501204629 66 338 1.0 5.0 0.00 0.00 0.00 40 1009.5
20260501204522 66 269 1.0 5.0 0.00 0.00 0.00 38 1009.5
20260501204201 66 255 1.0 5.0 0.00 0.00 0.00 37 1009.5
20260501204052 66 105 1.0 5.0 0.00 0.00 0.00 38 1009.5
20260501203945 66 30 1.0 5.0 0.00 0.00 0.00 36 1009.6
20260501203842 66 159 1.0 5.0 0.00 0.00 0.00 36 1009.5
20260501203736 66 205 1.0 5.0 0.00 0.00 0.00 36 1009.6
20260501203629 66 215 1.0 5.0 0.00 0.00 0.00 35 1009.6
20260501203527 66 235 1.0 5.0 0.00 0.00 0.00 37 1009.6
20260501202940 66 132 1.0 5.0 0.00 0.00 0.00 38 1009.9
20260501202620 66 238 1.0 7.0 0.00 0.00 0.00 38 1009.9
20260501202253 66 20 1.0 7.0 0.00 0.00 0.00 35 1009.8
20260501201932 66 192 1.0 7.0 0.00 0.00 0.00 39 1010.0
20260501201827 66 207 1.0 7.0 0.00 0.00 0.00 38 1010.0
20260501201724 66 225 1.0 7.0 0.00 0.00 0.00 35 1010.0
20260501201619 66 63 1.0 7.0 0.00 0.00 0.00 35 1010.0
20260501201515 66 292 1.0 7.0 0.00 0.00 0.00 35 1010.1
20260501201408 66 215 1.0 7.0 0.00 0.00 0.00 35 1010.1
20260501200823 66 233 1.0 7.0 0.00 0.00 0.00 34 1010.2
20260501200720 66 280 1.0 6.0 0.00 0.00 0.00 34 1010.3
20260501200359 66 229 1.0 6.0 0.00 0.00 0.00 36 1010.3
20260501200033 66 88 1.0 6.0 0.00 0.00 0.00 37 1010.3
20260501195930 66 225 1.0 6.0 0.00 0.00 0.00 36 1010.4
20260501195826 66 119 1.0 9.0 0.00 0.00 0.00 36 1010.3
20260501195722 66 217 1.0 9.0 0.00 0.00 0.00 38 1010.3
20260501195615 66 207 1.0 9.0 0.00 0.00 0.00 40 1010.3
20260501195508 66 342 1.0 9.0 0.00 0.00 0.00 38 1010.2
20260501195406 66 156 1.0 9.0 0.00 0.00 0.00 37 1010.3
20260501195259 66 150 1.0 9.0 0.00 0.00 0.00 37 1010.2
20260501195151 66 346 1.0 9.0 0.00 0.00 0.00 36 1010.2
20260501195047 66 30 1.0 9.0 0.00 0.00 0.00 36 1010.3
20260501194721 66 172 1.0 9.0 0.00 0.00 0.00 35 1010.3
20260501194618 66 148 1.0 9.0 0.00 0.00 0.00 36 1010.4
20260501194511 66 85 1.0 9.0 0.00 0.00 0.00 39 1010.5
20260501194403 66 218 2.0 9.0 0.00 0.00 0.00 38 1010.6
20260501194300 66 46 1.0 9.0 0.00 0.00 0.00 37 1010.7
20260501194154 66 192 1.0 9.0 0.00 0.00 0.00 36 1010.6
20260501194050 66 112 1.0 9.0 0.00 0.00 0.00 35 1010.7
20260501193947 66 169 1.0 9.0 0.00 0.00 0.00 36 1010.7
20260501193841 66 59 1.0 9.0 0.00 0.00 0.00 37 1010.7
20260501193737 66 275 1.0 7.0 0.00 0.00 0.00 35 1010.7
20260501193635 67 229 1.0 7.0 0.00 0.00 0.00 36 1010.7
20260501193531 67 290 1.0 7.0 0.00 0.00 0.00 39 1010.7
20260501193424 66 102 1.0 7.0 0.00 0.00 0.00 38 1010.7
20260501193320 66 130 1.0 7.0 0.00 0.00 0.00 37 1010.8
20260501193213 66 206 1.0 7.0 0.00 0.00 0.00 38 1010.7
20260501193108 66 202 1.0 8.0 0.00 0.00 0.00 37 1010.9
20260501193004 66 273 1.0 8.0 0.00 0.00 0.00 37 1010.9
20260501192901 66 170 1.0 8.0 0.00 0.00 0.00 37 1010.9
20260501192536 66 274 1.0 8.0 0.00 0.00 0.00 36 1011.0
20260501192432 66 151 1.0 8.0 0.00 0.00 0.00 35 1011.1
20260501192103 66 307 1.0 8.0 0.00 0.00 0.00 37 1011.0
20260501191957 66 145 1.0 8.0 0.00 0.00 0.00 35 1011.1
20260501191852 67 180 1.0 8.0 0.00 0.00 0.00 35 1011.0
20260501191527 67 293 1.0 8.0 0.00 0.00 0.00 36 1011.1
20260501191421 67 161 1.0 8.0 0.00 0.00 0.00 35 1011.1
20260501191317 67 158 1.0 8.0 0.00 0.00 0.00 36 1011.1
20260501191214 67 302 1.0 8.0 0.00 0.00 0.00 34 1011.1
20260501191108 67 186 1.0 5.0 0.00 0.00 0.00 36 1011.1
20260501191002 67 59 1.0 5.0 0.00 0.00 0.00 38 1011.1
20260501190855 67 149 1.0 5.0 0.00 0.00 0.00 38 1011.2
20260501190752 66 171 1.0 5.0 0.00 0.00 0.00 38 1011.2
20260501190646 66 292 1.0 5.0 0.00 0.00 0.00 39 1011.2
20260501190541 66 5 1.0 5.0 0.00 0.00 0.00 36 1011.2
20260501190435 66 120 1.0 5.0 0.00 0.00 0.00 36 1011.2
20260501190332 66 27 1.0 5.0 0.00 0.00 0.00 37 1011.3
20260501190012 66 146 1.0 5.0 0.00 0.00 0.00 36 1011.4
20260501185648 66 267 1.0 5.0 0.00 0.00 0.00 36 1011.5
20260501185546 66 192 1.0 5.0 0.00 0.00 0.00 36 1011.4
20260501185444 66 111 1.0 5.0 0.00 0.00 0.00 37 1011.5
20260501185337 66 234 0.0 5.0 0.00 0.00 0.00 35 1011.5
20260501185233 66 270 0.0 3.0 0.00 0.00 0.00 36 1011.5
20260501185129 66 191 0.0 2.0 0.00 0.00 0.00 38 1011.6
20260501185023 66 103 0.0 6.0 0.00 0.00 0.00 37 1011.6
20260501184921 66 109 0.0 6.0 0.00 0.00 0.00 36 1011.5
20260501184813 66 159 0.0 6.0 0.00 0.00 0.00 36 1011.6
20260501184709 66 66 1.0 6.0 0.00 0.00 0.00 36 1011.6
20260501184600 66 235 1.0 6.0 0.00 0.00 0.00 37 1011.7
20260501184453 66 229 1.0 6.0 0.00 0.00 0.00 37 1011.6
20260501184351 66 124 1.0 6.0 0.00 0.00 0.00 35 1011.6
20260501184249 67 130 2.0 6.0 0.00 0.00 0.00 35 1011.7
20260501184145 67 125 2.0 6.0 0.00 0.00 0.00 39 1011.7
20260501184043 66 200 1.0 6.0 0.00 0.00 0.00 38 1011.8
20260501183939 66 150 1.0 10.0 0.00 0.00 0.00 37 1011.7
20260501183614 66 311 1.0 10.0 0.00 0.00 0.00 37 1011.7
20260501183249 66 209 1.0 10.0 0.00 0.00 0.00 39 1011.8
20260501183143 66 262 1.0 10.0 0.00 0.00 0.00 37 1011.8
20260501183039 66 284 1.0 10.0 0.00 0.00 0.00 36 1011.8
20260501182936 66 335 1.0 10.0 0.00 0.00 0.00 38 1012.0
20260501182829 66 198 1.0 10.0 0.00 0.00 0.00 37 1011.9
20260501182726 67 28 1.0 10.0 0.00 0.00 0.00 37 1011.9
20260501182402 67 232 2.0 10.0 0.00 0.00 0.00 39 1011.9
20260501182255 66 137 2.0 10.0 0.00 0.00 0.00 39 1011.9
20260501182149 66 217 2.0 10.0 0.00 0.00 0.00 37 1012.0
20260501182044 66 207 1.0 10.0 0.00 0.00 0.00 37 1012.0
20260501181938 66 215 1.0 6.0 0.00 0.00 0.00 37 1011.9
20260501181612 66 232 1.0 6.0 0.00 0.00 0.00 41 1012.1
20260501181508 66 220 1.0 6.0 0.00 0.00 0.00 39 1012.1
20260501181400 66 274 1.0 6.0 0.00 0.00 0.00 38 1012.1
20260501181258 66 207 1.0 6.0 0.00 0.00 0.00 40 1012.1
20260501180936 66 225 1.0 6.0 0.00 0.00 0.00 43 1012.1
20260501180830 65 232 1.0 6.0 0.00 0.00 0.00 40 1012.2
20260501180723 66 206 1.0 6.0 0.00 0.00 0.00 39 1012.1
20260501180356 66 227 1.0 6.0 0.00 0.00 0.00 37 1012.2
20260501180252 66 210 1.0 6.0 0.00 0.00 0.00 37 1012.3
20260501180146 66 103 1.0 5.0 0.00 0.00 0.00 38 1012.3
20260501180038 67 40 1.0 5.0 0.00 0.00 0.00 38 1012.3
20260501175935 67 84 1.0 5.0 0.00 0.00 0.00 41 1012.4
20260501175830 66 51 1.0 5.0 0.00 0.00 0.00 40 1012.4
20260501175724 66 97 0.0 5.0 0.00 0.00 0.00 37 1012.4
20260501175619 66 156 1.0 5.0 0.00 0.00 0.00 37 1012.3
20260501175034 66 130 1.0 7.0 0.00 0.00 0.00 40 1012.4
20260501174928 66 142 1.0 7.0 0.00 0.00 0.00 41 1012.4
20260501174821 65 277 1.0 7.0 0.00 0.00 0.00 39 1012.5
20260501174715 65 202 1.0 7.0 0.00 0.00 0.00 39 1012.4
20260501174609 65 134 1.0 7.0 0.00 0.00 0.00 40 1012.3
20260501174506 65 122 1.0 7.0 0.00 0.00 0.00 40 1012.4
20260501174400 66 92 1.0 7.0 0.00 0.00 0.00 39 1012.5
20260501174253 66 117 1.0 7.0 0.00 0.00 0.00 43 1012.6
20260501173931 65 216 1.0 7.0 0.00 0.00 0.00 42 1012.5
20260501173824 65 81 1.0 7.0 0.00 0.00 0.00 39 1012.5
20260501173501 65 30 1.0 7.0 0.00 0.00 0.00 41 1012.5
20260501173354 65 236 1.0 7.0 0.00 0.00 0.00 40 1012.6
20260501173248 65 216 1.0 6.0 0.00 0.00 0.00 41 1012.6
20260501172919 66 225 1.0 6.0 0.00 0.00 0.00 40 1012.7
20260501172813 66 200 1.0 6.0 0.00 0.00 0.00 37 1012.6
20260501172706 66 119 1.0 6.0 0.00 0.00 0.00 38 1012.7
20260501172601 66 227 1.0 6.0 0.00 0.00 0.00 38 1012.7
20260501172013 68 100 1.0 5.0 0.00 0.00 0.00 36 1012.7
20260501171906 68 44 1.0 5.0 0.00 0.00 0.00 38 1012.7
20260501171800 67 129 1.0 5.0 0.00 0.00 0.00 38 1012.7
20260501171653 67 103 1.0 5.0 0.00 0.00 0.00 38 1012.7
20260501171548 67 103 1.0 5.0 0.00 0.00 0.00 37 1012.7
20260501171443 67 119 1.0 5.0 0.00 0.00 0.00 37 1012.7
20260501171338 67 143 1.0 5.0 0.00 0.00 0.00 36 1012.7
20260501171234 67 355 1.0 5.0 0.00 0.00 0.00 36 1012.7
20260501171132 68 88 1.0 5.0 0.00 0.00 0.00 34 1012.8
20260501171029 68 139 1.0 5.0 0.00 0.00 0.00 34 1012.8
20260501170927 68 80 1.0 5.0 0.00 0.00 0.00 36 1012.9
20260501170822 68 124 1.0 5.0 0.00 0.00 0.00 36 1012.9
20260501170718 68 34 1.0 5.0 0.00 0.00 0.00 35 1012.9
20260501170614 68 94 1.0 5.0 0.00 0.00 0.00 35 1013.0
20260501170512 68 146 1.0 5.0 0.00 0.00 0.00 36 1013.0
20260501170404 68 103 1.0 5.0 0.00 0.00 0.00 35 1013.0
20260501170302 68 147 1.0 5.0 0.00 0.00 0.00 37 1013.0
20260501170200 68 150 1.0 5.0 0.00 0.00 0.00 35 1012.9
20260501170058 68 135 1.0 5.0 0.00 0.00 0.00 37 1013.0
20260501165956 68 50 1.0 5.0 0.00 0.00 0.00 36 1013.0
20260501165850 68 128 1.0 5.0 0.00 0.00 0.00 39 1013.0
20260501165746 68 107 1.0 5.0 0.00 0.00 0.00 38 1012.9
20260501165639 68 286 1.0 5.0 0.00 0.00 0.00 37 1013.0
20260501165533 67 221 1.0 5.0 0.00 0.00 0.00 35 1012.9
20260501165429 68 131 1.0 5.0 0.00 0.00 0.00 37 1013.0
20260501165325 68 53 1.0 5.0 0.00 0.00 0.00 36 1013.0
20260501165222 68 232 1.0 5.0 0.00 0.00 0.00 36 1013.1
20260501165115 68 202 1.0 5.0 0.00 0.00 0.00 37 1013.2
20260501165009 68 148 1.0 3.0 0.00 0.00 0.00 35 1013.1
20260501164902 68 336 0.0 3.0 0.00 0.00 0.00 34 1013.2
20260501164759 68 115 1.0 3.0 0.00 0.00 0.00 35 1013.3
20260501164432 68 264 1.0 3.0 0.00 0.00 0.00 32 1013.2
20260501164328 68 178 1.0 7.0 0.00 0.00 0.00 32 1013.2
20260501164220 68 248 1.0 7.0 0.00 0.00 0.00 36 1013.2
20260501163853 68 32 0.0 7.0 0.00 0.00 0.00 36 1013.3
20260501163746 68 103 0.0 7.0 0.00 0.00 0.00 37 1013.2
20260501163419 67 108 0.0 7.0 0.00 0.00 0.00 38 1013.4